Tracking 28790 objects as of 19-Apr-2024
HD Live streaming from Space Station
objects crossing your sky now

COSMOS 2251 DEB

Track COSMOS 2251 DEB now!
10-day predictions


NORAD ID: 36053
Int'l Code: 1993-036AXQ
Perigee: 723.1 km
Apogee: 781.6 km
Inclination: 73.9 °
Period: 99.7 minutes
Semi major axis: 7123 km
RCS: 0.0107 m2 (small)
Launch date: June 16, 1993
Source: Commonwealth of Independent States (former USSR) (CIS)
Launch site: PLESETSK MISSILE AND SPACE COMPLEX (PKMTR)

Note: This is SATELLITE DEBRIS
Your satellite tracking list
Your tracking list is empty




NASA's NSSDC Master Catalog

Two Line Element Set (TLE):
1 36053U 93036AXQ 24108.97851615  .00014264  00000-0  41272-2 0  9990
2 36053  73.8792 219.9077 0041017 296.3752  63.3195 14.44032233786865
Source of the keplerian elements: AFSPC